This is the latest recevied weather packets stored in our database for station/object KB1RMA-13. If no packets are shown the sender has not sent any weather packets the latest 10 day(s).
| Time | Temp. | Humidity | Pressure | Rain* | Wind** | Luminosity | Snow |
|---|---|---|---|---|---|---|---|
| 1777563579 | 9.44° C | 99% | 1007.6 hPa | 0 mm | - | 147 W/m² | - |
| 1777563279 | 8.89° C | 99% | 1008 hPa | 0 mm | - | 111 W/m² | - |
| 1777562976 | 9.44° C | 99% | 1008.1 hPa | 0 mm | - | 104 W/m² | - |
| 1777562671 | 9.44° C | 99% | 1007.7 hPa | 0 mm | - | 105 W/m² | - |
| 1777562366 | 9.44° C | 99% | 1008 hPa | 0 mm | - | 150 W/m² | - |
| 1777562061 | 8.89° C | 99% | 1008.2 hPa | 0 mm | - | 101 W/m² | - |
| 1777561759 | 8.89° C | 99% | 1008.2 hPa | 0 mm | - | 86 W/m² | - |
| 1777561454 | 8.89° C | 99% | 1008.2 hPa | 0 mm | - | 104 W/m² | - |
| 1777561149 | 8.89° C | 99% | 1008.4 hPa | 0 mm | - | 124 W/m² | - |
| 1777560844 | 8.89° C | 99% | 1008.2 hPa | 0 mm | - | 122 W/m² | - |
| 1777560543 | 8.89° C | 99% | 1008.3 hPa | 0 mm | - | 97 W/m² | - |
| 1777560241 | 8.89° C | 99% | 1008.2 hPa | 0 mm | - | 73 W/m² | - |
| 1777559937 | 8.89° C | 99% | 1008.3 hPa | 0 mm | - | 84 W/m² | - |
| 1777559637 | 8.89° C | 99% | 1008.2 hPa | 0 mm | - | 101 W/m² | - |
| 1777559335 | 8.89° C | 99% | 1008.4 hPa | 0 mm | - | 83 W/m² | - |
| 1777559031 | 8.89° C | 99% | 1008.5 hPa | 0 mm | - | 100 W/m² | - |
| 1777558727 | 8.89° C | 99% | 1008.7 hPa | 0 mm | - | 111 W/m² | - |
| 1777558423 | 8.89° C | 99% | 1008.8 hPa | 0 mm | - | 84 W/m² | - |
| 1777558119 | 8.89° C | 99% | 1008.9 hPa | 0 mm | - | 82 W/m² | - |
| 1777557816 | 8.89° C | 99% | 1008.8 hPa | 0 mm | - | 72 W/m² | - |
| 1777557513 | 8.33° C | 99% | 1008.9 hPa | 0 mm | - | 81 W/m² | - |
| 1777557209 | 8.89° C | 99% | 1008.8 hPa | 0 mm | - | 106 W/m² | - |
| 1777556905 | 8.89° C | 99% | 1008.5 hPa | 0 mm | - | 136 W/m² | - |
| 1777556601 | 8.33° C | 99% | 1009.1 hPa | 0 mm | - | 101 W/m² | - |
| 1777556301 | 8.33° C | 99% | 1008.9 hPa | 0 mm | - | 97 W/m² | - |
* Rain latest hour (hover to see other rain measurements)
** Current wind speed in m/s (hover to see current wind gust speed)